Regional Weather Roundup
Issued by NWS

Home | Current Version | Previous Version | Graphics & Text | Print | Product List | Glossary Off
Versions: 1 2 3 4 5 6 7 8 9 10 11 12 13 14 15 16 17 18 19 20 21 22 23 24 25 26 27 28 29 30 31 32 33 34 35 36 37 38 39 40 41 42 43 44 45 46 47 48 49 50

000
ASUS43 KMKX 281210
RWRWI

WISCONSIN REGIONAL WEATHER ROUNDUP
NATIONAL WEATHER SERVICE MILWAUKEE/SULLIVAN WI
700 AM CDT SAT MAR 28 2015

NOTE: "FAIR" INDICATES FEW OR NO CLOUDS BELOW 12,000 FEET WITH NO
SIGNIFICANT WEATHER AND/OR OBSTRUCTIONS TO VISIBILITY.

WIZ001-002-006>008-014>016-023>028-281300-
NORTHWEST WISCONSIN

CITY           SKY/WX    TMP DP  RH WIND       PRES   REMARKS
SUPERIOR ARPT  CLEAR     12   9  87 CALM      30.25R
6HR MIN TEMP:  10; 6HR MAX TEMP:  17;

ASHLAND        CLEAR      9   5  84 CALM      30.24R
6HR MIN TEMP:   8; 6HR MAX TEMP:  13;

HAYWARD        CLEAR     12   7  80 N3        30.22R
6HR MIN TEMP:  11; 6HR MAX TEMP:  20;

SIREN          CLEAR     11   7  81 CALM      30.23R
6HR MIN TEMP:  11; 6HR MAX TEMP:  20;

CUMBERLAND     CLEAR     18  14  86 CALM      30.22R
RICE LAKE      CLEAR     16  13  89 CALM      30.24R
6HR MIN TEMP:  16; 6HR MAX TEMP:  23;

CHETEK         CLEAR     13  10  90 CALM      30.23R
6HR MIN TEMP:  13; 6HR MAX TEMP:  20;

LADYSMITH      CLEAR     15  13  89 CALM      30.24R
6HR MIN TEMP:  15; 6HR MAX TEMP:  23;

EAU CLAIRE     FAIR      14   9  80 CALM      30.24R
6HR MIN TEMP:  13; 6HR MAX TEMP:  23;

MENOMONIE      CLEAR     19  15  87 CALM      30.25R
6HR MIN TEMP:  17; 6HR MAX TEMP:  24;

NEW RICHMOND   CLEAR     17  14  86 CALM      30.23R
6HR MIN TEMP:  17; 6HR MAX TEMP:  24;

OSCEOLA        CLEAR     17  13  86 CALM      30.26R
6HR MIN TEMP:  16; 6HR MAX TEMP:  25;

$$

WIZ003>005-009-010-017-018-281300-
NORTH CENTRAL WISCONSIN

CITY           SKY/WX    TMP DP  RH WIND       PRES   REMARKS
MANITOWISH WTR CLEAR      4   1  88 CALM      30.19R
6HR MIN TEMP:   4; 6HR MAX TEMP:  11;

ARBOR VITAE    CLEAR      6   1  81 CALM      30.20R
6HR MIN TEMP:   6; 6HR MAX TEMP:  13;

WOODRUFF       CLEAR      6   1  81 CALM      30.20R
6HR MIN TEMP:   6; 6HR MAX TEMP:  13;

RHINELANDER    CLEAR      5   1  83 CALM      30.20R
6HR MIN TEMP:   3; 6HR MAX TEMP:  13;

EAGLE RIVER    CLEAR     -1  -6  80 CALM      30.20R
6HR MIN TEMP:  -2; 6HR MAX TEMP:   6;

LAND O LAKES   CLEAR     -7 -12  81 CALM      30.20S
6HR MIN TEMP:  -8; 6HR MAX TEMP:   1;

PHILLIPS       CLEAR      9   6  87 CALM      30.19R
6HR MIN TEMP:   9; 6HR MAX TEMP:  18;

TOMAHAWK       CLEAR      3   0  85 CALM      30.21R
6HR MIN TEMP:   2; 6HR MAX TEMP:   9;

MEDFORD        CLEAR     13   9  83 CALM      30.20R
6HR MIN TEMP:  12; 6HR MAX TEMP:  19;

MERRILL        CLEAR      8   5  89 CALM      30.22R
6HR MIN TEMP:   6; 6HR MAX TEMP:  14;

$$

WIZ029-030-035-036-043>047-281300-
CENTRAL WISCONSIN

CITY           SKY/WX    TMP DP  RH WIND       PRES   REMARKS
WAUSAU         CLEAR     13   8  81 E6        30.22R WCI   4
6HR MIN TEMP:  13; 6HR MAX TEMP:  18;

MOSINEE        CLEAR     12  10  92 CALM      30.24R
MARSHFIELD     CLEAR     16  10  77 CALM      30.23R
6HR MIN TEMP:  15; 6HR MAX TEMP:  22;

STEVENS POINT  CLEAR      8   5  86 CALM      30.26R
6HR MIN TEMP:   8; 6HR MAX TEMP:  14;

WAUPACA        CLEAR     15  11  83 CALM      30.28R
6HR MIN TEMP:  15; 6HR MAX TEMP:  22;

WAUTOMA        FAIR       9   5  83 CALM      30.28R
6HR MIN TEMP:   8; 6HR MAX TEMP:  14;

WISC RAPIDS    CLEAR     11   6  81 CALM      30.27R
6HR MIN TEMP:  10; 6HR MAX TEMP:  16;

CAMP DOUGLAS   CLEAR      9   9  99 E5        30.25R WCI   0
6HR MIN TEMP:   8; 6HR MAX TEMP:  14;

$$

WIZ011>013-019>022-031-037>040-048>050-281300-
NORTHEAST WISCONSIN

CITY           SKY/WX    TMP DP  RH WIND       PRES   REMARKS
ANTIGO         CLEAR     11   5  77 SE5       30.22R WCI   3
6HR MIN TEMP:  10; 6HR MAX TEMP:  15;

SHAWANO        CLEAR     13  10  85 CALM      30.29R
6HR MIN TEMP:  13; 6HR MAX TEMP:  18;

OCONTO         CLEAR      8   5  90 CALM      30.30R
6HR MIN TEMP:   7; 6HR MAX TEMP:  17;

STURGEON BAY   CLEAR     12   5  73 CALM      30.30S
6HR MIN TEMP:  12; 6HR MAX TEMP:  16;

GREEN BAY      CLEAR     17  12  80 CALM      30.29R
6HR MIN TEMP:  17; 6HR MAX TEMP:  21;

MANITOWOC      CLEAR     16  12  84 N3        30.30R
6HR MIN TEMP:  15; 6HR MAX TEMP:  18;

APPLETON       CLEAR     18  10  73 VRB3      30.27R
CLINTONVILLE   CLEAR     14  10  85 CALM      30.28R
OSHKOSH        CLEAR     16  12  84 CALM      30.28R
6HR MIN TEMP:  15; 6HR MAX TEMP:  19;

$$

WIZ032>034-041-042-053>061-281300-
SOUTHWEST WISCONSIN

CITY           SKY/WX    TMP DP  RH WIND       PRES   REMARKS
LA CROSSE      CLEAR     20  15  81 E5        30.26R WCI  13
6HR MIN TEMP:  20; 6HR MAX TEMP:  24;

SPARTA         CLEAR      9   7  89 CALM      30.26R
6HR MIN TEMP:   9; 6HR MAX TEMP:  14;

VIROQUA        CLEAR     19  10  68 SE6       30.22R WCI  11
6HR MIN TEMP:  18; 6HR MAX TEMP:  24;

BOSCOBEL       PTCLDY    13   9  84 CALM      30.28R
6HR MIN TEMP:  13; 6HR MAX TEMP:  19;

PRAIRIE DU CHI PTCLDY    15  10  81 E5        30.27R WCI   7
6HR MIN TEMP:  15; 6HR MAX TEMP:  19;

PLATTEVILLE    CLEAR     20  15  82 E3        30.26R
6HR MIN TEMP:  19; 6HR MAX TEMP:  24;

$$

WIZ056-057-062-063-064-067-068-281300-
SOUTH CENTRAL WISCONSIN

CITY           SKY/WX    TMP DP  RH WIND       PRES   REMARKS
REEDSBURG      CLEAR     15  11  85 CALM      30.26R
6HR MIN TEMP:  15; 6HR MAX TEMP:  19;

BARABOO/DELLS  CLEAR     13   8  79 CALM      30.26R
6HR MIN TEMP:  13; 6HR MAX TEMP:  22;

LONE ROCK      CLEAR     14   9  80 CALM      30.28R
6HR MIN TEMP:  14; 6HR MAX TEMP:  21;

MINERAL POINT  CLEAR     19  14  79 SE6       30.24R WCI  11
MADISON        MOCLDY    15  11  83 CALM      30.27R
6HR MIN TEMP:  14; 6HR MAX TEMP:  23;

MIDDLETON      CLEAR     17  13  84 CALM      30.28R
6HR MIN TEMP:  16; 6HR MAX TEMP:  23;

WATERTOWN      CLEAR     13  12  95 CALM      30.28R
6HR MIN TEMP:  12; 6HR MAX TEMP:  17;

MONROE         CLEAR     19  16  86 S6        30.25R WCI  11
JANESVILLE     CLEAR     16  14  93 CALM      30.28R
$$

WIZ051-052-058>065-066-070>072-281300-
SOUTHEAST WISCONSIN

CITY           SKY/WX    TMP DP  RH WIND       PRES   REMARKS
MILWAUKEE      PTCLDY    19  11  70 NW3       30.28R
6HR MIN TEMP:  18; 6HR MAX TEMP:  23;

WAUKESHA       CLEAR     14  10  85 W5        30.28R WCI   6
MILWAUKEE/TIMM CLEAR     14  10  85 CALM      30.29R
RACINE         CLEAR     17  12  80 NW3       30.30R
6HR MIN TEMP:  16; 6HR MAX TEMP:  23;

BURLINGTON     CLEAR     11   9  92 CALM      30.28R
6HR MIN TEMP:  11; 6HR MAX TEMP:  14;

KENOSHA        CLEAR     16  12  84 N5        30.28R WCI   9
6HR MIN TEMP:  14; 6HR MAX TEMP:  21;

FOND DU LAC    CLEAR     12   8  84 CALM      30.28R
6HR MIN TEMP:  12; 6HR MAX TEMP:  17;

SHEBOYGAN      CLEAR     16  11  80 CALM      30.28R
6HR MIN TEMP:  12; 6HR MAX TEMP:  17;

WEST BEND      CLEAR     14  10  85 CALM      30.28R
JUNEAU         CLEAR     15  13  90 CALM      30.29R
6HR MIN TEMP:  15; 6HR MAX TEMP:  18;

$$

LSZ147-162-281300-
LAKE SUPERIOR

STATION/POSITION TIME  TEMP    WIND        PRES    WAVE
                       AIR SEA DIR/SP/G            HT/PER
                 (UTC) (F)     (DEG/KT/KT) (MB)    (FT/S)
DEVILS ISLAND    1200   26      CALM  /  1 1025.4R
PORT WING        1100   13     160/  4/  5 1023.7
SAXON HARBOR     1100   13        CALM     1023.4R
$$

LMZ867-665-643>646-281300-
LAKE MICHIGAN

STATION/POSITION TIME  TEMP    WIND        PRES    WAVE


USA.gov is the U.S. government's official web portal to all federal, state and local government web resources and services.